When you browse on this site, cookies collect data to enhance your experience and personalize the content and advertising you see.
Visit our Privacy Policy to learn more. By continuing to use the site, you agree to this use of cookies and data.
  • In Slovakia
  • List of Countries
  • For 7 days
  • Water Temperature
  • Satellite Maps
  • Weather Map
  • Weather Widgets
  • user-avatar
    Login

    Hourly Weather Wielgorz

    Today, 22 April, Monday

    Time Temperature Precipitation Wind Pressure Humidity
    00:00 +5°C° 0.2 mm 3 mps 750 mmHg 93%
    01:00 +5°C° 0.2 mm 4 mps 750 mmHg 93%
    02:00 +6°C° 0.2 mm 4 mps 750 mmHg 93%
    03:00 +6°C° 0.2 mm 5 mps 750 mmHg 92%
    04:00 +6°C° 0.2 mm 5 mps 750 mmHg 92%
    05:00 +7°C° 0 mm 6 mps 750 mmHg 89%
    06:00 +7°C° 0 mm 6 mps 751 mmHg 87%
    07:00 +8°C° 0 mm 6 mps 751 mmHg 85%
    08:00 +9°C° 0 mm 7 mps 751 mmHg 79%
    09:00 +11°C° 0 mm 7 mps 752 mmHg 72%
    10:00 +12°C° 0 mm 7 mps 752 mmHg 66%
    11:00 +14°C° 0 mm 7 mps 752 mmHg 61%
    12:00 +15°C° 0 mm 8 mps 752 mmHg 57%
    13:00 +15°C° 0 mm 8 mps 752 mmHg 52%
    14:00 +15°C° 0 mm 8 mps 753 mmHg 51%
    15:00 +15°C° 0 mm 7 mps 753 mmHg 50%
    16:00 +15°C° 0 mm 7 mps 753 mmHg 49%
    17:00 +14°C° 0 mm 6 mps 753 mmHg 52%
    18:00 +11°C° 0 mm 6 mps 753 mmHg 55%
    19:00 +10°C° 0 mm 5 mps 753 mmHg 58%
    20:00 +9°C° 0 mm 5 mps 754 mmHg 57%
    21:00 +8°C° 0 mm 5 mps 754 mmHg 57%
    22:00 +8°C° 0 mm 5 mps 754 mmHg 57%
    23:00 +8°C° 0 mm 5 mps 754 mmHg 57%

    Tomorrow, 23 April, Tuesday

    Time Temperature Precipitation Wind Pressure Humidity
    00:00 +7°C° 0 mm 5 mps 754 mmHg 57%
    01:00 +7°C° 0 mm 6 mps 754 mmHg 57%
    02:00 +7°C° 0 mm 6 mps 754 mmHg 57%
    03:00 +5°C° 0 mm 6 mps 754 mmHg 58%
    04:00 +5°C° 0 mm 6 mps 754 mmHg 59%
    05:00 +6°C° 0 mm 7 mps 754 mmHg 57%
    06:00 +7°C° 0 mm 8 mps 754 mmHg 56%
    07:00 +10°C° 0 mm 9 mps 755 mmHg 54%
    08:00 +11°C° 0 mm 9 mps 754 mmHg 51%
    09:00 +12°C° 0 mm 10 mps 754 mmHg 47%
    10:00 +13°C° 0 mm 10 mps 754 mmHg 44%
    11:00 +14°C° 0 mm 10 mps 754 mmHg 43%
    12:00 +14°C° 0 mm 10 mps 753 mmHg 43%
    13:00 +16°C° 0 mm 10 mps 753 mmHg 42%
    14:00 +16°C° 0 mm 10 mps 753 mmHg 43%
    15:00 +16°C° 0 mm 9 mps 752 mmHg 44%
    16:00 +16°C° 0 mm 9 mps 752 mmHg 45%
    17:00 +13°C° 0 mm 8 mps 752 mmHg 49%
    18:00 +12°C° 0 mm 7 mps 752 mmHg 52%
    19:00 +11°C° 0 mm 6 mps 752 mmHg 55%
    20:00 +11°C° 0 mm 7 mps 752 mmHg 55%
    21:00 +10°C° 0 mm 7 mps 752 mmHg 55%
    22:00 +10°C° 0 mm 7 mps 752 mmHg 56%
    23:00 +10°C° 0 mm 7 mps 752 mmHg 56%

    Day after tomorrow, 24 April, Wednesday

    Time Temperature Precipitation Wind Pressure Humidity
    00:00 +9°C° 0 mm 8 mps 752 mmHg 57%
    01:00 +9°C° 0 mm 8 mps 752 mmHg 58%
    02:00 +9°C° 0 mm 8 mps 752 mmHg 57%
    03:00 +7°C° 0 mm 8 mps 752 mmHg 57%
    04:00 +7°C° 0 mm 8 mps 751 mmHg 56%
    05:00 +7°C° 0 mm 8 mps 751 mmHg 57%
    06:00 +8°C° 0 mm 9 mps 752 mmHg 57%
    07:00 +9°C° 0 mm 10 mps 752 mmHg 57%
    08:00 +11°C° 0 mm 10 mps 752 mmHg 55%
    09:00 +12°C° 0 mm 10 mps 751 mmHg 53%
    10:00 +13°C° 0 mm 10 mps 751 mmHg 52%
    11:00 +14°C° 0 mm 10 mps 751 mmHg 51%
    12:00 +16°C° 0 mm 10 mps 751 mmHg 50%
    13:00 +17°C° 0 mm 10 mps 751 mmHg 49%
    14:00 +16°C° 0 mm 9 mps 751 mmHg 53%
    15:00 +15°C° 0 mm 9 mps 750 mmHg 57%
    16:00 +15°C° 0 mm 8 mps 750 mmHg 61%
    17:00 +13°C° 0 mm 8 mps 750 mmHg 62%
    18:00 +14°C° 0 mm 7 mps 750 mmHg 64%
    19:00 +13°C° 0 mm 6 mps 751 mmHg 65%
    20:00 +13°C° 0 mm 6 mps 751 mmHg 66%
    21:00 +13°C° 0 mm 6 mps 751 mmHg 67%
    22:00 +11°C° 0 mm 6 mps 751 mmHg 69%
    23:00 +11°C° 0 mm 6 mps 751 mmHg 70%

    25 April, Thursday

    Time Temperature Precipitation Wind Pressure Humidity
    00:00 +10°C° 0 mm 6 mps 751 mmHg 72%
    01:00 +10°C° 0 mm 6 mps 751 mmHg 74%
    02:00 +9°C° 0 mm 6 mps 751 mmHg 75%
    03:00 +9°C° 0 mm 5 mps 751 mmHg 77%
    04:00 +8°C° 0 mm 5 mps 751 mmHg 78%
    05:00 +10°C° 0 mm 6 mps 751 mmHg 76%
    06:00 +11°C° 0 mm 6 mps 751 mmHg 74%
    07:00 +13°C° 0 mm 6 mps 751 mmHg 72%
    08:00 +15°C° 0 mm 7 mps 751 mmHg 67%
    09:00 +17°C° 0 mm 7 mps 751 mmHg 63%
    10:00 +20°C° 0 mm 7 mps 750 mmHg 58%
    11:00 +21°C° 0 mm 7 mps 750 mmHg 56%
    12:00 +22°C° 0 mm 8 mps 750 mmHg 53%
    13:00 +23°C° 0 mm 8 mps 750 mmHg 50%
    14:00 +23°C° 0 mm 7 mps 749 mmHg 52%
    15:00 +23°C° 0 mm 7 mps 749 mmHg 54%
    16:00 +22°C° 0 mm 6 mps 749 mmHg 56%
    17:00 +21°C° 0.1 mm 6 mps 749 mmHg 61%
    18:00 +19°C° 0.1 mm 5 mps 749 mmHg 66%
    19:00 +17°C° 0.1 mm 5 mps 749 mmHg 72%
    20:00 +16°C° 0 mm 5 mps 749 mmHg 74%
    21:00 +16°C° 0 mm 5 mps 749 mmHg 77%
    22:00 +15°C° 0 mm 5 mps 749 mmHg 79%
    23:00 +15°C° 0 mm 5 mps 749 mmHg 83%

    26 April, Friday

    Time Temperature Precipitation Wind Pressure Humidity
    00:00 +14°C° 0 mm 5 mps 749 mmHg 87%
    01:00 +13°C° 0 mm 4 mps 748 mmHg 91%
    02:00 +13°C° 0 mm 4 mps 748 mmHg 92%
    03:00 +13°C° 0 mm 4 mps 748 mmHg 94%
    04:00 +13°C° 0 mm 4 mps 748 mmHg 95%
    05:00 +14°C° 0 mm 4 mps 747 mmHg 90%
    06:00 +15°C° 0 mm 5 mps 747 mmHg 86%
    07:00 +16°C° 0 mm 5 mps 747 mmHg 81%
    08:00 +19°C° 0 mm 6 mps 747 mmHg 74%
    09:00 +21°C° 0 mm 6 mps 746 mmHg 66%
    10:00 +23°C° 0 mm 7 mps 746 mmHg 59%
    11:00 +24°C° 0 mm 7 mps 746 mmHg 55%
    12:00 +26°C° 0 mm 8 mps 745 mmHg 51%
    13:00 +27°C° 0 mm 8 mps 745 mmHg 48%
    14:00 +26°C° 0 mm 8 mps 745 mmHg 49%
    15:00 +26°C° 0 mm 7 mps 745 mmHg 50%
    16:00 +26°C° 0 mm 7 mps 744 mmHg 52%
    17:00 +24°C° 0 mm 6 mps 744 mmHg 55%
    18:00 +22°C° 0 mm 6 mps 744 mmHg 59%
    19:00 +21°C° 0 mm 6 mps 744 mmHg 62%
    20:00 +20°C° 0.3 mm 6 mps 744 mmHg 66%
    21:00 +19°C° 0.3 mm 5 mps 744 mmHg 70%
    22:00 +17°C° 0.3 mm 5 mps 745 mmHg 75%
    23:00 +18°C° 0.9 mm 4 mps 745 mmHg 79%

    27 April, Saturday

    Time Temperature Precipitation Wind Pressure Humidity
    00:00 +17°C° 0.9 mm 3 mps 745 mmHg 84%
    01:00 +16°C° 0.9 mm 3 mps 745 mmHg 88%
    02:00 +16°C° 0 mm 3 mps 745 mmHg 89%
    03:00 +16°C° 0 mm 3 mps 745 mmHg 90%
    04:00 +15°C° 0 mm 4 mps 745 mmHg 91%
    05:00 +15°C° 0 mm 4 mps 746 mmHg 89%
    06:00 +15°C° 0 mm 4 mps 746 mmHg 86%
    07:00 +17°C° 0 mm 4 mps 746 mmHg 84%
    08:00 +16°C° 0 mm 5 mps 747 mmHg 80%
    09:00 +16°C° 0 mm 5 mps 747 mmHg 76%
    10:00 +17°C° 0 mm 5 mps 747 mmHg 72%
    11:00 +17°C° 0.1 mm 5 mps 748 mmHg 72%
    12:00 +18°C° 0.1 mm 4 mps 748 mmHg 72%
    13:00 +18°C° 0.1 mm 4 mps 748 mmHg 71%
    14:00 +17°C° 0 mm 4 mps 748 mmHg 72%
    15:00 +17°C° 0 mm 4 mps 748 mmHg 72%
    16:00 +17°C° 0 mm 4 mps 748 mmHg 72%
    17:00 +15°C° 0 mm 4 mps 748 mmHg 74%
    18:00 +14°C° 0 mm 4 mps 749 mmHg 76%
    19:00 +14°C° 0 mm 4 mps 749 mmHg 78%
    20:00 +13°C° 0 mm 4 mps 749 mmHg 79%
    21:00 +13°C° 0 mm 3 mps 749 mmHg 79%
    22:00 +12°C° 0 mm 3 mps 750 mmHg 80%
    23:00 +12°C° 0 mm 3 mps 750 mmHg 81%
    Show more